TimeCDT,TemperatureF,Dew PointF,Humidity,Sea Level PressureIn,VisibilityMPH,Wind Direction,Wind SpeedMPH,Gust SpeedMPH,PrecipitationIn,Events,Conditions,WindDirDegrees,DateUTC
12:57 AM,73.9,63.0,68,29.78,10.0,SSE,16.1,21.9,N/A,,Partly Cloudy,160,2013-05-30 05:57:00
1:57 AM,73.9,63.0,68,29.76,10.0,SSE,20.7,28.8,N/A,,Scattered Clouds,160,2013-05-30 06:57:00
2:35 AM,73.4,64.4,73,29.83,10.0,SSE,27.6,44.9,N/A,Thunderstorm,Mostly Cloudy,160,2013-05-30 07:35:00
2:38 AM,73.4,62.6,69,29.84,4.0,South,38.0,55.2,0.05,Rain-Thunderstorm,Light Rain,190,2013-05-30 07:38:00
2:43 AM,69.8,60.8,73,29.85,2.5,South,27.6,55.2,0.18,Rain-Thunderstorm,Heavy Rain,180,2013-05-30 07:43:00
2:47 AM,66.2,60.8,83,29.86,3.0,South,19.6,36.8,0.22,Rain-Thunderstorm,Heavy Thunderstorms and Rain,180,2013-05-30 07:47:00
2:50 AM,64.4,60.8,88,29.86,4.0,SSW,16.1,36.8,0.22,Rain-Thunderstorm,Light Thunderstorms and Rain,200,2013-05-30 07:50:00
2:57 AM,64.0,60.1,87,29.83,10.0,SW,16.1,23.0,0.22,Rain-Thunderstorm,Light Thunderstorms and Rain,230,2013-05-30 07:57:00
3:02 AM,64.4,60.8,88,29.86,10.0,WSW,15.0,21.9,0.01,Rain-Thunderstorm,Light Rain,240,2013-05-30 08:02:00
3:10 AM,62.6,60.8,94,29.87,10.0,WSW,6.9,20.7,0.01,Rain,Light Rain,240,2013-05-30 08:10:00
3:57 AM,63.0,61.0,93,29.84,10.0,SSE,8.1,-,0.07,Rain,Light Rain,150,2013-05-30 08:57:00
4:57 AM,63.0,61.0,93,29.79,10.0,ESE,11.5,-,0.03,,Overcast,110,2013-05-30 09:57:00
5:57 AM,62.1,61.0,96,29.79,10.0,ESE,10.4,-,N/A,,Mostly Cloudy,110,2013-05-30 10:57:00
6:57 AM,63.0,61.0,93,29.81,10.0,SE,9.2,-,N/A,,Overcast,130,2013-05-30 11:57:00
7:11 AM,62.6,60.8,94,29.86,10.0,SE,4.6,-,N/A,,Overcast,140,2013-05-30 12:11:00
7:20 AM,62.6,60.8,94,29.85,10.0,ESE,10.4,-,N/A,,Overcast,120,2013-05-30 12:20:00
7:57 AM,66.0,63.0,90,29.80,10.0,SE,12.7,-,N/A,,Partly Cloudy,130,2013-05-30 12:57:00
8:57 AM,72.0,66.9,84,29.78,10.0,South,21.9,27.6,N/A,,Partly Cloudy,170,2013-05-30 13:57:00
9:57 AM,75.9,66.0,71,29.77,10.0,South,20.7,35.7,N/A,,Partly Cloudy,180,2013-05-30 14:57:00
10:57 AM,78.1,66.0,66,29.79,10.0,South,23.0,35.7,N/A,,Overcast,170,2013-05-30 15:57:00
11:57 AM,78.1,66.0,66,29.79,10.0,South,16.1,23.0,N/A,,Overcast,180,2013-05-30 16:57:00
12:57 PM,80.1,66.9,64,29.77,10.0,South,20.7,36.8,N/A,,Mostly Cloudy,170,2013-05-30 17:57:00
1:57 PM,77.0,64.0,64,29.75,10.0,SSE,17.3,33.4,N/A,,Partly Cloudy,160,2013-05-30 18:57:00
2:57 PM,75.9,61.0,60,29.77,10.0,South,19.6,33.4,0.00,Thunderstorm,Thunderstorm,180,2013-05-30 19:57:00
3:22 PM,69.8,62.6,78,29.81,10.0,SSE,27.6,38.0,0.02,Rain,Light Rain,150,2013-05-30 20:22:00
3:25 PM,68.0,60.8,78,29.81,10.0,SSE,21.9,38.0,0.02,Rain-Thunderstorm,Light Rain,150,2013-05-30 20:25:00
3:57 PM,66.9,62.1,84,29.77,10.0,SE,11.5,-,0.02,Thunderstorm,Overcast,140,2013-05-30 20:57:00
4:02 PM,68.0,62.6,83,29.79,10.0,SE,10.4,-,N/A,,Overcast,140,2013-05-30 21:02:00
4:08 PM,68.0,62.6,83,29.78,10.0,SE,11.5,18.4,N/A,Thunderstorm,Thunderstorm,140,2013-05-30 21:08:00
4:25 PM,69.8,64.4,83,29.78,10.0,SSE,15.0,20.7,N/A,,Overcast,150,2013-05-30 21:25:00
4:57 PM,71.1,66.0,84,29.75,10.0,SSE,13.8,-,N/A,,Overcast,150,2013-05-30 21:57:00
5:57 PM,72.0,66.9,84,29.74,10.0,South,15.0,21.9,0.01,,Mostly Cloudy,170,2013-05-30 22:57:00
6:07 PM,71.6,66.2,83,29.78,10.0,South,12.7,-,N/A,Thunderstorm,Mostly Cloudy,170,2013-05-30 23:07:00
6:13 PM,71.6,66.2,83,29.77,10.0,SSE,17.3,-,N/A,Thunderstorm,Mostly Cloudy,160,2013-05-30 23:13:00
6:42 PM,71.6,66.2,83,29.77,10.0,SSE,15.0,24.2,0.00,,Overcast,160,2013-05-30 23:42:00
6:57 PM,72.0,66.9,84,29.75,10.0,SSE,20.7,25.3,0.00,,Overcast,160,2013-05-30 23:57:00
7:09 PM,71.6,66.2,83,29.78,10.0,South,23.0,31.1,N/A,Thunderstorm,Overcast,170,2013-05-31 00:09:00
7:36 PM,71.6,66.2,83,29.78,10.0,SSE,13.8,23.0,0.01,Rain-Thunderstorm,Light Rain,160,2013-05-31 00:36:00
7:57 PM,71.1,66.0,84,29.77,10.0,SSE,11.5,-,0.01,Rain-Thunderstorm,Light Rain,160,2013-05-31 00:57:00
8:11 PM,71.6,66.2,83,29.80,10.0,SSE,10.4,20.7,0.00,,Overcast,150,2013-05-31 01:11:00
8:57 PM,71.1,66.9,87,29.76,10.0,SE,12.7,17.3,0.00,,Overcast,130,2013-05-31 01:57:00
9:14 PM,71.6,66.2,83,29.80,10.0,SSE,12.7,19.6,N/A,Thunderstorm,Overcast,150,2013-05-31 02:14:00
9:57 PM,71.1,66.0,84,29.79,10.0,SSE,5.8,-,0.01,Rain-Thunderstorm,Light Rain,150,2013-05-31 02:57:00
10:21 PM,69.8,64.4,83,29.89,6.0,WSW,28.8,44.9,0.08,Rain-Thunderstorm,Heavy Thunderstorms and Rain,250,2013-05-31 03:21:00
10:29 PM,64.4,59.0,83,29.88,2.5,WSW,8.1,40.3,0.37,Rain-Thunderstorm,Heavy Thunderstorms and Rain,240,2013-05-31 03:29:00
10:32 PM,62.6,59.0,88,29.88,3.0,SSW,5.8,-,0.41,Rain-Thunderstorm,Heavy Thunderstorms and Rain,210,2013-05-31 03:32:00
10:38 PM,62.6,60.8,94,29.85,6.0,East,5.8,-,0.43,Rain-Thunderstorm,Thunderstorms and Rain,90,2013-05-31 03:38:00
10:57 PM,63.0,61.0,93,29.81,10.0,South,6.9,-,0.44,Thunderstorm,Thunderstorm,170,2013-05-31 03:57:00
11:20 PM,62.6,60.8,94,29.84,10.0,ESE,5.8,-,N/A,,Clear,120,2013-05-31 04:20:00
11:24 PM,62.6,60.8,94,29.84,10.0,East,6.9,-,N/A,Thunderstorm,Clear,100,2013-05-31 04:24:00
11:42 PM,62.6,60.8,94,29.84,10.0,ESE,5.8,-,N/A,,Clear,120,2013-05-31 04:42:00
11:57 PM,64.0,62.1,93,29.81,10.0,SE,10.4,-,N/A,,Clear,130,2013-05-31 04:57:00